Location: Gorze? G�rny
(49.8500°N, 19.5000°E)
Time: 02:42:31
(UTC+00:00)

Cosmos 1242 Rocket - Pass Details

Date: 13 May 2021
Orbit: 446 x 484 km, 81.2° (Epoch: 23 June)

Event Time Altitude Azimuth Distance (km) Brightness Sun altitude
Rises 19:24:08 0° 208° (SSW) 2,505 6.0 -9.3°
Reaches altitude 10° 19:26:19 10° 217° (SW) 1,626 5.2 -9.5°
Maximum altitude 19:29:40 39° 287° (WNW) 721 4.0 -9.9°
Drops below altitude 10° 19:33:01 10° 358° (N) 1,619 6.0 -10.3°
Sets 19:35:11 0° 6° (N) 2,492 6.8 -10.5°
